[[{"header":{"parameterUnit":"m.s-1","parameterCategory":1,"la1":30.2991,"la2":30.254,"lo1":-89.0895,"lo2":-89.0444,"dy":0.0017,"dx":0.0017,"nx":28,"ny":28,"refTime":"2025-04-29T21:00:00:Z","depth":0,"parameterNumber":2,"parameterNumberName":"U-component_of_WINDS"},"data":[0,0,0,0,0,0,0,0,0,0,0,0,0,0,0,0,0,0,0,0,0,0,0,0,0,0,0,0,0,0,0,0,0,0,0,0,0,0,0,0,0,0,0,0,0,0,0,0,0,0,0,0,0,0,0,0,0,0,-0.3639,-0.3641,0,-0.3862,-0.3865,-0.3868,-0.3985,-0.3985,-0.3985,-0.3985,-0.4216,-0.4222,-0.4228,0,0,0,0,0,0,0,0,0,0,0,0,0,-0.3314,-0.332,-0.3638,-0.3641,-0.3644,-0.3862,-0.3865,-0.3868,-0.3985,-0.3985,-0.3985,-0.3985,-0.4214,-0.4221,-0.4228,0,0,0,0,0,0,0,0,0,0,0,0,0,-0.3488,-0.3321,-0.3638,-0.3728,-0.3739,-0.3861,-0.3865,-0.3869,-0.3985,-0.3985,-0.3985,-0.3985,-0.4212,-0.422,-0.4229,-0.428,0,0,-0.4257,-0.4261,0,0,0,0,0,0,0,0,-0.3478,-0.35,-0.3712,-0.3722,-0.3734,-0.3896,-0.3836,-0.4007,-0.3985,-0.3891,-0.3985,-0.3985,-0.4109,-0.4127,-0.4168,-0.429,-0.43,-0.4257,-0.4263,-0.4267,-0.4269,0,0,0,0,0,0,0,-0.3466,-0.3491,-0.3727,-0.3715,-0.3729,-0.3759,-0.3784,-0.3869,-0.3996,-0.3899,-0.3908,-0.3933,-0.4115,-0.4159,-0.4175,-0.4304,-0.4257,-0.4265,-0.4271,-0.4274,-0.4481,-0.4482,0,0,0,0,0,0,-0.3439,-0.348,-0.372,-0.3734,-0.3604,-0.3764,-0.3792,-0.3844,-0.3996,-0.4019,-0.3933,-0.3938,-0.4144,-0.4164,-0.4183,-0.4254,-0.4267,-0.4275,-0.428,-0.4481,-0.4482,-0.4482,0,0,0,0,0,0,-0.3432,-0.3459,-0.3711,-0.361,-0.3644,-0.377,-0.3826,-0.3848,-0.3892,-0.4021,-0.4044,-0.3954,-0.4145,-0.417,-0.4255,-0.4264,-0.4279,-0.4287,-0.4481,-0.4481,-0.4482,-0.4395,0,0,0,0,0,0,-0.3422,-0.3456,-0.3476,-0.3609,-0.3649,-0.3778,-0.3827,-0.3852,-0.3907,-0.3916,-0.4047,-0.4069,-0.4147,-0.4241,-0.4264,-0.4276,-0.4294,-0.4481,-0.4481,-0.4482,-0.4397,-0.4392,-0.4387,0,0,0,0,0,-0.341,-0.3442,-0.3476,-0.3504,-0.3676,-0.3778,-0.3801,-0.389,-0.3907,-0.3929,-0.4012,-0.4065,-0.4259,-0.4249,-0.4276,-0.4291,-0.4481,-0.4481,-0.4482,-0.44,-0.4393,-0.4387,0,0,0,0,0,0,-0.3306,-0.3461,-0.35,-0.3576,-0.3663,-0.3798,-0.3828,-0.3879,-0.3964,-0.3968,-0.4075,-0.4104,-0.4179,-0.4244,-0.423,-0.4349,-0.4375,-0.4381,-0.4304,-0.4299,-0.4294,-0.4277,-0.4302,0,0,0,0,0,-0.3292,-0.3361,-0.3493,-0.3548,-0.3589,-0.37,-0.3749,-0.3809,-0.3904,-0.3941,-0.4031,-0.4121,-0.4203,-0.4254,-0.4336,-0.4407,-0.4439,-0.4431,-0.4426,-0.4421,-0.4425,-0.4469,-0.4468,-0.4483,-0.4483,-0.4483,0,0,-0.3264,-0.3357,-0.3394,-0.3529,-0.3604,-0.3675,-0.3731,-0.3803,-0.3857,-0.3953,-0.4039,-0.4107,-0.4215,-0.4294,-0.4333,-0.435,-0.4428,-0.4421,-0.4416,-0.4423,-0.4469,-0.4468,-0.4467,-0.4483,-0.4483,-0.4483,0,0,-0.3249,-0.3325,-0.338,-0.3454,-0.3566,-0.364,-0.3653,-0.378,-0.383,-0.3918,-0.3992,-0.4058,-0.4195,-0.427,-0.4326,-0.4341,-0.4394,-0.4365,-0.4338,-0.438,-0.4379,-0.4379,-0.4386,-0.4387,-0.4368,-0.4368,-0.4368,0,-0.3199,-0.3308,-0.3402,-0.347,-0.3528,-0.3618,-0.3676,-0.3743,-0.3876,-0.3915,-0.3931,-0.4108,-0.4187,-0.4285,-0.4289,-0.433,-0.435,-0.4351,-0.4372,-0.4372,-0.4373,-0.4381,-0.4384,-0.4364,-0.4364,-0.4365,-0.4365,0,-0.3243,-0.3318,-0.3349,-0.3475,-0.3537,-0.3599,-0.3703,-0.3755,-0.3811,-0.3883,-0.3973,-0.4071,-0.4175,-0.4203,-0.4258,-0.431,-0.4317,-0.4351,-0.438,-0.4366,-0.4376,-0.4379,-0.4358,-0.4359,-0.436,-0.4362,0,0,-0.3169,-0.3347,-0.3357,-0.3417,-0.3548,-0.3608,-0.3675,-0.3777,-0.382,-0.3909,-0.3969,-0.4084,-0.4118,-0.4181,-0.4246,-0.4282,-0.429,-0.4313,-0.4317,-0.4307,-0.4356,-0.433,-0.4332,-0.4326,-0.4327,-0.4327,-0.4347,0,-0.3173,-0.3298,-0.3384,-0.3476,-0.3547,-0.3634,-0.3693,-0.378,-0.385,-0.3922,-0.4,-0.408,-0.4117,-0.4156,-0.4196,-0.428,-0.4302,-0.428,-0.4384,-0.4387,-0.4356,-0.4337,-0.4309,-0.4323,-0.4351,-0.4352,-0.4353,0,-0.3195,-0.3282,-0.338,-0.3505,-0.3539,-0.359,-0.3692,-0.3758,-0.386,-0.3909,-0.398,-0.4046,-0.4123,-0.4144,-0.4252,-0.4235,-0.4283,-0.4331,-0.4334,-0.4348,-0.4369,-0.4352,-0.433,-0.4332,-0.4359,-0.4359,-0.4358,0,-0.3133,-0.3274,-0.3352,-0.34,-0.3547,-0.3582,-0.3645,-0.3747,-0.3804,-0.3893,-0.3931,-0.4027,-0.408,-0.4154,-0.4246,-0.4253,-0.4345,-0.4374,-0.4389,-0.4386,-0.4405,-0.4403,-0.4392,-0.4433,-0.4433,-0.4433,-0.4433,0,-0.313,-0.3187,-0.3326,-0.3374,-0.3441,-0.3541,-0.3605,-0.3676,-0.3766,-0.383,-0.3911,-0.397,-0.4086,-0.4159,-0.4231,-0.4311,-0.4334,-0.4376,-0.4395,-0.437,-0.4365,-0.4404,-0.4405,-0.4434,-0.4433,-0.4433,-0.4433,0,-0.3072,-0.3167,-0.3258,-0.339,-0.3425,-0.3469,-0.3583,-0.3634,-0.3708,-0.3789,-0.3813,-0.3931,-0.4022,-0.412,-0.4243,-0.4292,-0.4368,-0.4394,-0.4333,-0.4344,-0.4355,-0.4353,-0.4369,-0.4377,-0.4411,-0.441,-0.441,0,-0.3064,-0.311,-0.3248,-0.3297,-0.3358,-0.3435,-0.3493,-0.3594,-0.3651,-0.3772,-0.3808,-0.3905,-0.3988,-0.4129,-0.4226,-0.4321,-0.4351,-0.435,-0.4366,-0.434,-0.4353,-0.4349,-0.4356,-0.4345,-0.4344,-0.4344,-0.4343,0,-0.3041,-0.3086,-0.3167,-0.3264,-0.3332,-0.3413,-0.3498,-0.3534,-0.3652,-0.3712,-0.3806,-0.387,-0.3997,-0.4093,-0.42,-0.4267,-0.4325,-0.4337,-0.4346,-0.4322,-0.4286,-0.4307,-0.4322,-0.4337,-0.4337,-0.4338,-0.4338,-0.4338,-0.3009,-0.3055,-0.3159,-0.3247,-0.3322,-0.34,-0.3454,-0.3536,-0.3616,-0.3727,-0.3781,-0.3875,-0.3978,-0.4129,-0.4194,-0.427,-0.4287,-0.43,-0.4303,-0.4305,-0.4299,-0.4272,-0.4289,-0.429,-0.429,-0.429,-0.429,0,-0.2992,-0.3063,-0.3143,-0.326,-0.3329,-0.3377,-0.3475,-0.353,-0.3611,-0.3702,-0.3782,-0.389,-0.3984,-0.4089,-0.4189,-0.423,-0.4259,-0.4253,-0.4252,-0.4267,-0.4277,-0.426,-0.4228,-0.4228,-0.4228,-0.4228,-0.4228,-0.4228,-0.2991,-0.3071,-0.3129,-0.3248,-0.3321,-0.3413,-0.3464,-0.3537,-0.3611,-0.3728,-0.3806,-0.3874,-0.3971,-0.4079,-0.4168,-0.4197,-0.423,-0.4216,-0.4253,-0.426,-0.4265,-0.427,-0.4255,-0.4223,-0.4223,-0.4237,-0.4237,-0.4237]},{"header":{"parameterUnit":"m.s-1","parameterCategory":1,"la1":30.2991,"la2":30.254,"lo1":-89.0895,"lo2":-89.0444,"dy":0.0017,"dx":0.0017,"nx":28,"ny":28,"refTime":"2025-04-29T21:00:00:Z","depth":0,"parameterNumber":3,"parameterNumberName":"V-component_of_WINDS"},"data":[0,0,0,0,0,0,0,0,0,0,0,0,0,0,0,0,0,0,0,0,0,0,0,0,0,0,0,0,0,0,0,0,0,0,0,0,0,0,0,0,0,0,0,0,0,0,0,0,0,0,0,0,0,0,0,0,0,0,3.4814,3.4815,0,3.4965,3.4966,3.4968,3.497,3.4968,3.4966,3.4964,3.5111,3.5117,3.5122,0,0,0,0,0,0,0,0,0,0,0,0,0,3.4521,3.4526,3.4814,3.4816,3.4818,3.4964,3.4966,3.4968,3.497,3.4968,3.4965,3.4963,3.5109,3.5116,3.5123,0,0,0,0,0,0,0,0,0,0,0,0,0,3.4657,3.4528,3.4813,3.4836,3.484,3.4964,3.4966,3.4969,3.497,3.4968,3.4965,3.4962,3.5107,3.5116,3.5124,3.5233,0,0,3.515,3.5154,0,0,0,0,0,0,0,0,3.465,3.4668,3.4831,3.4835,3.4839,3.4946,3.4917,3.5057,3.4971,3.4921,3.4964,3.4961,3.5058,3.507,3.5105,3.524,3.5247,3.5151,3.5156,3.516,3.5162,0,0,0,0,0,0,0,3.464,3.4662,3.4873,3.4833,3.4838,3.4837,3.4853,3.4944,3.5003,3.4925,3.4925,3.4943,3.506,3.5096,3.5108,3.5249,3.5151,3.5158,3.5163,3.5167,3.5482,3.5485,0,0,0,0,0,0,3.4627,3.4654,3.4868,3.4878,3.4736,3.4844,3.4863,3.4914,3.5002,3.5013,3.4946,3.4943,3.5083,3.5098,3.5113,3.5248,3.516,3.5168,3.5172,3.5478,3.5482,3.5486,0,0,0,0,0,0,3.4621,3.4646,3.4862,3.4766,3.4793,3.4853,3.491,3.4919,3.4956,3.5018,3.5028,3.4973,3.5082,3.5101,3.5204,3.5253,3.5171,3.5179,3.5475,3.548,3.5484,3.5517,0,0,0,0,0,0,3.4612,3.4644,3.4688,3.4767,3.4799,3.4953,3.4913,3.4924,3.4971,3.4969,3.5046,3.5056,3.5081,3.5191,3.5213,3.5263,3.5186,3.547,3.5477,3.5482,3.5512,3.5522,3.5531,0,0,0,0,0,3.4602,3.4689,3.469,3.4716,3.4855,3.4955,3.4973,3.5002,3.4975,3.5018,3.5059,3.5054,3.5244,3.5202,3.5226,3.5279,3.5467,3.5475,3.5482,3.5507,3.552,3.5531,0,0,0,0,0,0,3.4611,3.47,3.4702,3.4818,3.4879,3.4956,3.5011,3.5014,3.5083,3.5078,3.5108,3.5126,3.5228,3.5264,3.5215,3.539,3.5352,3.5365,3.5363,3.5376,3.5385,3.5374,3.5193,0,0,0,0,0,3.4627,3.4704,3.4776,3.4871,3.4902,3.4952,3.4996,3.5013,3.5077,3.5103,3.5151,3.5211,3.5284,3.5332,3.5403,3.5517,3.5533,3.5565,3.5575,3.5583,3.5593,3.5656,3.5671,3.551,3.551,3.551,0,0,3.466,3.4718,3.4764,3.4875,3.4924,3.5001,3.4973,3.5055,3.5112,3.5114,3.5215,3.5252,3.5322,3.5431,3.5481,3.5464,3.5641,3.5592,3.5598,3.5604,3.5665,3.568,3.5694,3.5515,3.5514,3.5513,0,0,3.4759,3.4811,3.4897,3.4948,3.5024,3.5057,3.5077,3.5154,3.5179,3.5281,3.5285,3.5351,3.5477,3.5527,3.5569,3.5688,3.5686,3.571,3.5761,3.5822,3.5834,3.5846,3.5888,3.5903,3.572,3.572,3.572,0,3.479,3.4908,3.4939,3.5023,3.5071,3.5079,3.5165,3.5212,3.5307,3.5339,3.5319,3.5478,3.5525,3.5646,3.5675,3.5709,3.5732,3.5701,3.583,3.5842,3.5853,3.5894,3.591,3.5722,3.5722,3.5722,3.5721,0,3.4942,3.5023,3.5083,3.5177,3.5232,3.5316,3.5358,3.541,3.5422,3.5456,3.5559,3.5616,3.57,3.5729,3.5741,3.5852,3.5839,3.5824,3.5787,3.5871,3.5909,3.5925,3.5726,3.5725,3.5724,3.5724,0,0,3.505,3.5163,3.5184,3.5227,3.5313,3.5375,3.5459,3.5543,3.5586,3.5651,3.5721,3.5828,3.5816,3.5863,3.588,3.5934,3.6025,3.5913,3.5915,3.5932,3.615,3.6161,3.6179,3.6024,3.6027,3.603,3.6145,0,3.5159,3.5311,3.5342,3.5473,3.5548,3.5558,3.563,3.569,3.5724,3.5791,3.5827,3.5903,3.5881,3.5909,3.5963,3.6002,3.6069,3.5994,3.6088,3.6091,3.6071,3.6199,3.6211,3.6317,3.616,3.6163,3.6165,0,3.5306,3.5378,3.5517,3.5594,3.5626,3.5692,3.5771,3.5836,3.5903,3.5924,3.5977,3.5989,3.6075,3.6034,3.6151,3.61,3.614,3.6165,3.617,3.618,3.6133,3.6212,3.6351,3.6367,3.6189,3.6187,3.6185,0,3.5372,3.5503,3.5603,3.564,3.5731,3.5777,3.5817,3.5882,3.593,3.5999,3.603,3.6107,3.6149,3.6207,3.6238,3.6206,3.6354,3.6315,3.6372,3.6372,3.6403,3.6401,3.655,3.6429,3.6429,3.6428,3.6428,0,3.549,3.5574,3.5634,3.5696,3.5791,3.5825,3.5917,3.5956,3.6013,3.6081,3.6093,3.6156,3.6194,3.6262,3.6287,3.6381,3.6399,3.6417,3.6423,3.6417,3.6414,3.6443,3.6436,3.6432,3.6432,3.6431,3.643,0,3.5579,3.5623,3.5733,3.5811,3.5833,3.5899,3.5966,3.6025,3.6059,3.6145,3.6167,3.622,3.6301,3.6339,3.6438,3.6455,3.6561,3.6562,3.654,3.6542,3.6597,3.6591,3.677,3.6795,3.6657,3.6658,3.6659,0,3.5652,3.5717,3.5804,3.5852,3.5894,3.597,3.6021,3.6056,3.6108,3.619,3.6239,3.6321,3.6389,3.6517,3.6563,3.6639,3.6641,3.6699,3.6652,3.6644,3.6642,3.6638,3.6645,3.6707,3.6708,3.6709,3.671,0,3.5776,3.5795,3.5868,3.595,3.6011,3.6076,3.6139,3.6177,3.6223,3.628,3.6364,3.6417,3.652,3.66,3.668,3.6718,3.6722,3.6725,3.6742,3.6736,3.6721,3.673,3.6563,3.672,3.6719,3.6718,3.6718,3.6717,3.5859,3.5919,3.5989,3.6071,3.6123,3.6183,3.6243,3.6286,3.6358,3.6446,3.6462,3.6552,3.6617,3.6724,3.6766,3.6835,3.6821,3.6846,3.6853,3.6858,3.6862,3.671,3.6849,3.6849,3.6849,3.6849,3.6849,0,3.5984,3.6031,3.6106,3.6196,3.626,3.6261,3.6331,3.6384,3.6464,3.6526,3.6593,3.669,3.6768,3.6821,3.6901,3.6946,3.6949,3.6965,3.6962,3.6971,3.6869,3.6847,3.6961,3.6961,3.6961,3.6961,3.6961,3.6961,3.6057,3.6158,3.6185,3.6311,3.6356,3.6447,3.6487,3.6542,3.6591,3.67,3.6767,3.6802,3.6859,3.6943,3.7015,3.7028,3.7057,3.7074,3.7086,3.699,3.6978,3.6967,3.6946,3.708,3.708,3.7183,3.7184,3.7185]}]]